Location: ?????????
(55.6553°N, 38.9075°E)
Time: 00:52:24
(UTC+00:00)

NOSS 2-2 (E) - Pass Details

Date: 18 October 2019
Orbit: 488 x 1719 km, 63.3° (Epoch: 12 November)

Event Time Altitude Azimuth Distance (km) Brightness Sun altitude
Exits shadow 02:29:16 20° 243° (WSW) 1,298 4.7 -13.5°
Maximum altitude 02:31:56 73° 325° (NW) 628 3.5 -13.1°
Drops below altitude 10° 02:36:48 10° 51° (NE) 2,217 7.2 -12.4°
Sets 02:39:32 0° 54° (NE) 3,330 8.3 -12.1°
